Tracking 28081 objects as of 26-Sep-2023
HD Live streaming from Space Station
objects crossing your sky now

ECHO 1 DEB (METAL OBJ)

Track ECHO 1 DEB (METAL OBJ) now!
10-day predictions


NORAD ID: 51
Int'l Code: 1960-009C
Perigee: 1,522.8 km
Apogee: 1,691.3 km
Inclination: 47.2 °
Period: 118.2 minutes
Semi major axis: 7978 km
RCS: 0.6323 m2 (medium)
Launch date: August 12, 1960
Source: United States (US)
Launch site: AIR FORCE EASTERN TEST RANGE (AFETR)

Note: This is SATELLITE DEBRIS
Your satellite tracking list
Your tracking list is empty




NASA's NSSDC Master Catalog

Two Line Element Set (TLE):
1 00051U 60009C   23268.36376109 -.00000046  00000-0  38860-3 0  9996
2 00051  47.2109 250.6180 0105604 115.5866 245.5880 12.18303047809762
Source of the keplerian elements: AFSPC